| time (UTC) | temp C | wind direction | speed KPH | gust KPH | rain 1hr cm | rain 24hr cm | rain mn cm | humidity % | barometer mb |
| 20260507203213 | 16 | 32 | 6.4 | 8.0 | 0.00 | 0.00 | 0.00 | 82 | 1014.2 |
| 20260507202808 | 16 | 30 | 4.8 | 6.4 | 0.00 | 0.00 | 0.00 | 82 | 1014.2 |
| 20260507202629 | 16 | 343 | 4.8 | 6.4 | 0.00 | 0.00 | 0.00 | 81 | 1014.1 |
| 20260507202306 | 16 | 3 | 3.2 | 6.4 | 0.00 | 0.00 | 0.00 | 81 | 1014.2 |
| 20260507201317 | 16 | 338 | 4.8 | 6.4 | 0.00 | 0.00 | 0.00 | 81 | 1014.1 |
| 20260507200731 | 16 | 31 | 3.2 | 6.4 | 0.00 | 0.00 | 0.00 | 81 | 1014.0 |
| 20260507200335 | 16 | 25 | 3.2 | 6.4 | 0.00 | 0.00 | 0.00 | 82 | 1014.0 |
| 20260507195531 | 16 | 67 | 6.4 | 8.0 | 0.00 | 0.00 | 0.00 | 82 | 1013.7 |
| 20260507195309 | 16 | 63 | 4.8 | 6.4 | 0.00 | 0.00 | 0.00 | 81 | 1013.8 |
| 20260507194905 | 16 | 49 | 4.8 | 8.0 | 0.00 | 0.00 | 0.00 | 81 | 1013.7 |
| 20260507193936 | 16 | 65 | 6.4 | 9.7 | 0.00 | 0.00 | 0.00 | 81 | 1013.5 |
| 20260507193747 | 16 | 61 | 4.8 | 9.7 | 0.00 | 0.00 | 0.00 | 81 | 1013.5 |
| 20260507192729 | 16 | 67 | 4.8 | 9.7 | 0.00 | 0.00 | 0.00 | 81 | 1013.5 |
| 20260507192322 | 16 | 56 | 6.4 | 9.7 | 0.00 | 0.00 | 0.00 | 81 | 1013.4 |
| 20260507191723 | 16 | 66 | 6.4 | 11.3 | 0.00 | 0.00 | 0.00 | 80 | 1013.3 |
| 20260507191318 | 16 | 83 | 6.4 | 11.3 | 0.00 | 0.00 | 0.00 | 80 | 1013.3 |
| 20260507190720 | 16 | 91 | 8.0 | 11.3 | 0.00 | 0.00 | 0.00 | 80 | 1013.2 |
| 20260507190344 | 16 | 77 | 4.8 | 11.3 | 0.00 | 0.00 | 0.00 | 80 | 1013.2 |
| 20260507185712 | 16 | 86 | 8.0 | 9.7 | 0.00 | 0.00 | 0.00 | 80 | 1013.1 |
| 20260507185651 | 16 | 70 | 6.4 | 12.9 | 0.00 | 0.00 | 0.00 | 79 | 1013.1 |
| 20260507184712 | 16 | 58 | 6.4 | 14.5 | 0.00 | 0.00 | 0.00 | 79 | 1013.0 |
| 20260507184305 | 17 | 95 | 9.7 | 17.7 | 0.00 | 0.00 | 0.00 | 78 | 1013.0 |
| 20260507183712 | 17 | 82 | 8.0 | 17.7 | 0.00 | 0.00 | 0.00 | 78 | 1012.9 |
| 20260507183300 | 17 | 84 | 11.3 | 17.7 | 0.00 | 0.00 | 0.00 | 77 | 1012.8 |
| 20260507182712 | 17 | 72 | 9.7 | 17.7 | 0.00 | 0.00 | 0.00 | 77 | 1012.7 |
| 20260507182212 | 17 | 84 | 8.0 | 14.5 | 0.00 | 0.00 | 0.00 | 77 | 1012.8 |
| 20260507181712 | 17 | 65 | 11.3 | 14.5 | 0.00 | 0.00 | 0.00 | 77 | 1012.7 |
| 20260507181259 | 17 | 101 | 8.0 | 17.7 | 0.00 | 0.00 | 0.00 | 78 | 1012.7 |
| 20260507180835 | 17 | 58 | 11.3 | 17.7 | 0.00 | 0.00 | 0.00 | 78 | 1012.6 |
| 20260507180305 | 17 | 54 | 8.0 | 14.5 | 0.00 | 0.00 | 0.00 | 77 | 1012.5 |
| 20260507175717 | 17 | 50 | 9.7 | 17.7 | 0.00 | 0.00 | 0.00 | 77 | 1012.5 |
| 20260507175237 | 17 | 114 | 11.3 | 17.7 | 0.00 | 0.00 | 0.00 | 78 | 1012.6 |
| 20260507174805 | 17 | 89 | 11.3 | 17.7 | 0.00 | 0.00 | 0.00 | 78 | 1012.6 |
| 20260507174542 | 17 | 92 | 14.5 | 19.3 | 0.00 | 0.00 | 0.00 | 77 | 1012.7 |
| 20260507174358 | 17 | 66 | 14.5 | 17.7 | 0.00 | 0.00 | 0.00 | 77 | 1012.6 |
| 20260507174022 | 17 | 48 | 11.3 | 17.7 | 0.00 | 0.00 | 0.00 | 77 | 1012.6 |
| 20260507172816 | 17 | 120 | 14.5 | 20.9 | 0.00 | 0.00 | 0.00 | 77 | 1012.7 |
| 20260507172211 | 17 | 72 | 12.9 | 20.9 | 0.00 | 0.00 | 0.00 | 76 | 1012.7 |
| 20260507172146 | 17 | 98 | 14.5 | 20.9 | 0.00 | 0.00 | 0.00 | 77 | 1012.6 |
| 20260507171211 | 17 | 114 | 14.5 | 22.5 | 0.00 | 0.00 | 0.00 | 77 | 1012.5 |
| 20260507170956 | 17 | 101 | 14.5 | 20.9 | 0.00 | 0.00 | 0.00 | 76 | 1012.4 |
| 20260507170918 | 17 | 64 | 16.1 | 22.5 | 0.00 | 0.00 | 0.00 | 76 | 1012.4 |
| 20260507170427 | 17 | 81 | 12.9 | 19.3 | 0.00 | 0.00 | 0.00 | 76 | 1012.5 |
| 20260507165758 | 17 | 90 | 14.5 | 20.9 | 0.00 | 0.00 | 0.00 | 76 | 1012.5 |
| 20260507164710 | 17 | 86 | 11.3 | 22.5 | 0.00 | 0.00 | 0.00 | 76 | 1012.4 |
| 20260507164211 | 17 | 86 | 16.1 | 22.5 | 0.00 | 0.00 | 0.00 | 75 | 1012.3 |
| 20260507163749 | 17 | 101 | 14.5 | 20.9 | 0.00 | 0.00 | 0.00 | 75 | 1012.3 |
| 20260507163428 | 17 | 75 | 14.5 | 20.9 | 0.00 | 0.00 | 0.00 | 74 | 1012.3 |
| 20260507163407 | 17 | 35 | 11.3 | 19.3 | 0.00 | 0.00 | 0.00 | 75 | 1012.3 |
| 20260507163339 | 17 | 91 | 11.3 | 20.9 | 0.00 | 0.00 | 0.00 | 75 | 1012.3 |
| 20260507163105 | 17 | 91 | 14.5 | 20.9 | 0.00 | 0.00 | 0.00 | 74 | 1012.3 |
| 20260507161931 | 17 | 99 | 12.9 | 20.9 | 0.00 | 0.00 | 0.00 | 76 | 1012.3 |
| 20260507161041 | 17 | 96 | 11.3 | 20.9 | 0.00 | 0.00 | 0.00 | 74 | 1012.4 |
| 20260507161036 | 17 | 71 | 14.5 | 20.9 | 0.00 | 0.00 | 0.00 | 73 | 1012.4 |
| 20260507160926 | 17 | 84 | 12.9 | 20.9 | 0.00 | 0.00 | 0.00 | 74 | 1012.3 |
| 20260507160558 | 17 | 65 | 16.1 | 19.3 | 0.00 | 0.00 | 0.00 | 73 | 1012.3 |
| 20260507154945 | 17 | 96 | 11.3 | 17.7 | 0.00 | 0.00 | 0.00 | 73 | 1012.5 |
| 20260507154939 | 17 | 113 | 14.5 | 17.7 | 0.00 | 0.00 | 0.00 | 72 | 1012.7 |
| 20260507154750 | 17 | 112 | 12.9 | 17.7 | 0.00 | 0.00 | 0.00 | 72 | 1012.5 |
| 20260507153311 | 17 | 119 | 9.7 | 17.7 | 0.00 | 0.00 | 0.00 | 72 | 1012.7 |
| 20260507152711 | 18 | 122 | 9.7 | 17.7 | 0.00 | 0.00 | 0.00 | 71 | 1012.7 |
| 20260507152317 | 17 | 93 | 14.5 | 20.9 | 0.00 | 0.00 | 0.00 | 71 | 1012.8 |
| 20260507152306 | 18 | 117 | 9.7 | 19.3 | 0.00 | 0.00 | 0.00 | 72 | 1012.7 |
| 20260507151211 | 17 | 110 | 9.7 | 20.9 | 0.00 | 0.00 | 0.00 | 71 | 1012.7 |
| 20260507151055 | 17 | 118 | 14.5 | 19.3 | 0.00 | 0.00 | 0.00 | 71 | 1012.8 |
| 20260507150251 | 18 | 129 | 12.9 | 19.3 | 0.00 | 0.00 | 0.00 | 71 | 1012.9 |
| 20260507145835 | 18 | 95 | 12.9 | 20.9 | 0.00 | 0.00 | 0.00 | 69 | 1012.8 |
| 20260507145757 | 18 | 116 | 14.5 | 22.5 | 0.00 | 0.00 | 0.00 | 70 | 1013.0 |
| 20260507145417 | 17 | 130 | 12.9 | 22.5 | 0.00 | 0.00 | 0.00 | 70 | 1013.0 |
| 20260507144238 | 18 | 89 | 14.5 | 19.3 | 0.00 | 0.00 | 0.00 | 70 | 1012.7 |
| 20260507143827 | 17 | 102 | 8.0 | 19.3 | 0.00 | 0.00 | 0.00 | 69 | 1012.8 |
| 20260507143233 | 17 | 116 | 14.5 | 19.3 | 0.00 | 0.00 | 0.00 | 69 | 1012.8 |
| 20260507142824 | 17 | 110 | 12.9 | 19.3 | 0.00 | 0.00 | 0.00 | 69 | 1012.7 |
| 20260507142228 | 17 | 130 | 12.9 | 22.5 | 0.00 | 0.00 | 0.00 | 70 | 1012.8 |
| 20260507141819 | 17 | 71 | 14.5 | 22.5 | 0.00 | 0.00 | 0.00 | 70 | 1012.9 |
| 20260507141211 | 17 | 104 | 14.5 | 22.5 | 0.00 | 0.00 | 0.00 | 70 | 1013.0 |
| 20260507140813 | 17 | 111 | 16.1 | 22.5 | 0.00 | 0.00 | 0.00 | 69 | 1013.0 |
| 20260507140212 | 18 | 80 | 14.5 | 24.1 | 0.00 | 0.00 | 0.00 | 69 | 1013.0 |
| 20260507140031 | 17 | 113 | 14.5 | 22.5 | 0.00 | 0.00 | 0.00 | 68 | 1013.3 |
| 20260507135940 | 18 | 68 | 12.9 | 24.1 | 0.00 | 0.00 | 0.00 | 68 | 1013.1 |
| 20260507135310 | 17 | 91 | 14.5 | 22.5 | 0.00 | 0.00 | 0.00 | 69 | 1013.3 |
| 20260507134211 | 18 | 124 | 12.9 | 22.5 | 0.00 | 0.00 | 0.00 | 68 | 1013.5 |
| 20260507133711 | 17 | 112 | 14.5 | 20.9 | 0.00 | 0.00 | 0.00 | 70 | 1013.4 |
| 20260507133211 | 17 | 111 | 14.5 | 22.5 | 0.00 | 0.00 | 0.00 | 68 | 1013.3 |
| 20260507132752 | 18 | 72 | 17.7 | 22.5 | 0.00 | 0.00 | 0.00 | 69 | 1013.5 |
| 20260507132211 | 17 | 93 | 17.7 | 22.5 | 0.00 | 0.00 | 0.00 | 68 | 1013.6 |
| 20260507131746 | 17 | 103 | 14.5 | 19.3 | 0.00 | 0.00 | 0.00 | 69 | 1013.7 |
| 20260507131215 | 18 | 89 | 11.3 | 19.3 | 0.00 | 0.00 | 0.00 | 68 | 1013.8 |
| 20260507131207 | 17 | 139 | 12.9 | 20.9 | 0.00 | 0.00 | 0.00 | 69 | 1013.8 |
| 20260507130333 | 17 | 120 | 14.5 | 20.9 | 0.00 | 0.00 | 0.00 | 69 | 1013.9 |
| 20260507130016 | 17 | 93 | 9.7 | 20.9 | 0.00 | 0.00 | 0.00 | 70 | 1014.0 |
| 20260507125806 | 17 | 109 | 12.9 | 20.9 | 0.00 | 0.00 | 0.00 | 67 | 1013.9 |
| 20260507125436 | 18 | 96 | 11.3 | 19.3 | 0.00 | 0.00 | 0.00 | 68 | 1014.0 |
| 20260507124354 | 17 | 103 | 12.9 | 20.9 | 0.00 | 0.00 | 0.00 | 70 | 1014.1 |
| 20260507123711 | 17 | 111 | 14.5 | 19.3 | 0.00 | 0.00 | 0.00 | 69 | 1014.2 |
| 20260507123319 | 17 | 115 | 11.3 | 17.7 | 0.00 | 0.00 | 0.00 | 71 | 1014.1 |
| 20260507122711 | 18 | 108 | 9.7 | 20.9 | 0.00 | 0.00 | 0.00 | 69 | 1014.2 |
| 20260507122312 | 17 | 108 | 14.5 | 20.9 | 0.00 | 0.00 | 0.00 | 70 | 1014.2 |
| 20260507121714 | 18 | 98 | 12.9 | 19.3 | 0.00 | 0.00 | 0.00 | 70 | 1014.2 |
| 20260507121233 | 17 | 115 | 12.9 | 20.9 | 0.00 | 0.00 | 0.00 | 71 | 1014.2 |
| 20260507120711 | 17 | 113 | 12.9 | 20.9 | 0.00 | 0.00 | 0.00 | 71 | 1014.3 |
| 20260507120209 | 18 | 112 | 12.9 | 20.9 | 0.00 | 0.00 | 0.00 | 70 | 1014.3 |
| 20260507115717 | 18 | 120 | 12.9 | 19.3 | 0.00 | 0.00 | 0.00 | 71 | 1014.3 |
| 20260507115258 | 17 | 97 | 11.3 | 17.7 | 0.00 | 0.00 | 0.00 | 71 | 1014.3 |
| 20260507114710 | 17 | 118 | 11.3 | 17.7 | 0.00 | 0.00 | 0.00 | 71 | 1014.3 |
| 20260507114322 | 17 | 96 | 12.9 | 17.7 | 0.00 | 0.00 | 0.00 | 71 | 1014.2 |
| 20260507113709 | 17 | 124 | 9.7 | 19.3 | 0.00 | 0.00 | 0.00 | 71 | 1014.1 |
| 20260507113247 | 17 | 109 | 14.5 | 19.3 | 0.00 | 0.00 | 0.00 | 71 | 1014.2 |
| 20260507112710 | 17 | 69 | 11.3 | 17.7 | 0.00 | 0.00 | 0.00 | 71 | 1014.2 |
| 20260507112537 | 17 | 134 | 12.9 | 17.7 | 0.00 | 0.00 | 0.00 | 69 | 1014.2 |
| 20260507111835 | 18 | 154 | 9.7 | 17.7 | 0.00 | 0.00 | 0.00 | 70 | 1014.2 |
| 20260507111423 | 17 | 127 | 12.9 | 16.1 | 0.00 | 0.00 | 0.00 | 73 | 1014.5 |
| 20260507111414 | 17 | 58 | 11.3 | 19.3 | 0.00 | 0.00 | 0.00 | 71 | 1014.3 |
| 20260507111338 | 17 | 117 | 11.3 | 17.7 | 0.00 | 0.00 | 0.00 | 70 | 1014.2 |
| 20260507110351 | 17 | 72 | 9.7 | 19.3 | 0.00 | 0.00 | 0.00 | 71 | 1014.4 |
| 20260507110124 | 17 | 87 | 11.3 | 17.7 | 0.00 | 0.00 | 0.00 | 74 | 1014.7 |
| 20260507105907 | 17 | 110 | 12.9 | 17.7 | 0.00 | 0.00 | 0.00 | 72 | 1014.4 |
| 20260507105419 | 17 | 70 | 12.9 | 17.7 | 0.00 | 0.00 | 0.00 | 72 | 1014.5 |
| 20260507104349 | 17 | 108 | 11.3 | 16.1 | 0.00 | 0.00 | 0.00 | 72 | 1014.6 |
| 20260507103215 | 17 | 110 | 11.3 | 17.7 | 0.00 | 0.00 | 0.00 | 73 | 1014.8 |
| 20260507102710 | 17 | 79 | 11.3 | 17.7 | 0.00 | 0.00 | 0.00 | 74 | 1014.8 |
| 20260507102211 | 17 | 105 | 12.9 | 17.7 | 0.00 | 0.00 | 0.00 | 74 | 1014.7 |
| 20260507101800 | 17 | 81 | 12.9 | 17.7 | 0.00 | 0.00 | 0.00 | 74 | 1014.7 |
| 20260507101504 | 17 | 135 | 9.7 | 17.7 | 0.00 | 0.00 | 0.00 | 74 | 1014.9 |
| 20260507100823 | 17 | 117 | 11.3 | 19.3 | 0.00 | 0.00 | 0.00 | 74 | 1014.9 |
| 20260507100211 | 17 | 106 | 14.5 | 19.3 | 0.00 | 0.00 | 0.00 | 74 | 1014.8 |
| 20260507095749 | 17 | 120 | 11.3 | 19.3 | 0.00 | 0.00 | 0.00 | 74 | 1014.8 |
| 20260507095209 | 17 | 108 | 9.7 | 19.3 | 0.00 | 0.00 | 0.00 | 74 | 1014.8 |
| 20260507094743 | 17 | 85 | 12.9 | 19.3 | 0.00 | 0.00 | 0.00 | 73 | 1014.8 |
| 20260507094210 | 17 | 128 | 9.7 | 17.7 | 0.00 | 0.00 | 0.00 | 74 | 1014.8 |
| 20260507093807 | 17 | 82 | 11.3 | 20.9 | 0.00 | 0.00 | 0.00 | 74 | 1014.8 |
| 20260507093329 | 17 | 100 | 14.5 | 20.9 | 0.00 | 0.00 | 0.00 | 74 | 1014.8 |
| 20260507092710 | 17 | 107 | 14.5 | 20.9 | 0.00 | 0.00 | 0.00 | 75 | 1014.8 |
| 20260507092644 | 17 | 72 | 14.5 | 20.9 | 0.00 | 0.00 | 0.00 | 75 | 1014.8 |
| 20260507091710 | 17 | 91 | 12.9 | 20.9 | 0.00 | 0.00 | 0.00 | 74 | 1014.8 |
| 20260507091321 | 17 | 96 | 14.5 | 20.9 | 0.00 | 0.00 | 0.00 | 74 | 1014.7 |
| 20260507090753 | 17 | 82 | 14.5 | 19.3 | 0.00 | 0.00 | 0.00 | 75 | 1014.6 |
| 20260507090254 | 17 | 95 | 11.3 | 17.7 | 0.00 | 0.00 | 0.00 | 74 | 1014.6 |
| 20260507085716 | 17 | 136 | 11.3 | 19.3 | 0.00 | 0.00 | 0.00 | 75 | 1014.6 |
| 20260507085209 | 17 | 49 | 11.3 | 22.5 | 0.00 | 0.00 | 0.00 | 75 | 1014.5 |
| 20260507084710 | 17 | 65 | 16.1 | 22.5 | 0.00 | 0.00 | 0.00 | 75 | 1014.6 |
| 20260507084303 | 17 | 101 | 12.9 | 19.3 | 0.00 | 0.00 | 0.00 | 75 | 1014.6 |
| 20260507083736 | 17 | 89 | 14.5 | 19.3 | 0.00 | 0.00 | 0.00 | 75 | 1014.6 |
| 20260507083302 | 16 | 108 | 9.7 | 22.5 | 0.00 | 0.00 | 0.00 | 77 | 1014.5 |
| 20260507082713 | 16 | 84 | 16.1 | 22.5 | 0.00 | 0.00 | 0.00 | 77 | 1014.4 |
| 20260507082259 | 16 | 82 | 14.5 | 22.5 | 0.00 | 0.00 | 0.00 | 77 | 1014.5 |
| 20260507081709 | 17 | 75 | 16.1 | 22.5 | 0.00 | 0.00 | 0.00 | 76 | 1014.5 |
| 20260507081253 | 17 | 99 | 12.9 | 22.5 | 0.00 | 0.00 | 0.00 | 76 | 1014.5 |
| 20260507080724 | 17 | 60 | 14.5 | 22.5 | 0.00 | 0.00 | 0.00 | 74 | 1014.5 |
| 20260507080311 | 17 | 115 | 14.5 | 19.3 | 0.00 | 0.00 | 0.00 | 76 | 1014.6 |
| 20260507075831 | 17 | 106 | 12.9 | 17.7 | 0.00 | 0.00 | 0.00 | 75 | 1014.5 |
| 20260507075210 | 17 | 96 | 12.9 | 19.3 | 0.00 | 0.00 | 0.00 | 75 | 1014.6 |
| 20260507074827 | 17 | 91 | 12.9 | 20.9 | 0.00 | 0.00 | 0.00 | 76 | 1014.5 |
| 20260507074235 | 17 | 79 | 12.9 | 20.9 | 0.00 | 0.00 | 0.00 | 78 | 1014.6 |
| 20260507073828 | 17 | 65 | 16.1 | 20.9 | 0.00 | 0.00 | 0.00 | 78 | 1014.6 |
| 20260507073232 | 16 | 96 | 14.5 | 22.5 | 0.00 | 0.00 | 0.00 | 78 | 1014.6 |
| 20260507072825 | 16 | 44 | 14.5 | 22.5 | 0.00 | 0.00 | 0.00 | 79 | 1014.6 |
| 20260507072810 | 16 | 79 | 17.7 | 22.5 | 0.00 | 0.00 | 0.00 | 79 | 1014.7 |
| 20260507071710 | 16 | 62 | 14.5 | 22.5 | 0.00 | 0.00 | 0.00 | 80 | 1014.6 |
| 20260507071220 | 16 | 64 | 17.7 | 20.9 | 0.00 | 0.00 | 0.00 | 80 | 1014.5 |
| 20260507070807 | 16 | 50 | 9.7 | 20.9 | 0.00 | 0.00 | 0.00 | 80 | 1014.5 |
| 20260507070233 | 16 | 73 | 14.5 | 17.7 | 0.00 | 0.00 | 0.00 | 79 | 1014.4 |
| 20260507065759 | 16 | 89 | 9.7 | 24.1 | 0.00 | 0.00 | 0.00 | 79 | 1014.4 |
| 20260507065212 | 16 | 75 | 14.5 | 24.1 | 0.00 | 0.00 | 0.00 | 79 | 1014.3 |
| 20260507064755 | 16 | 62 | 9.7 | 16.1 | 0.00 | 0.00 | 0.00 | 79 | 1014.3 |
| 20260507064210 | 16 | 79 | 12.9 | 16.1 | 0.00 | 0.00 | 0.00 | 78 | 1014.2 |
| 20260507063754 | 16 | 66 | 12.9 | 17.7 | 0.00 | 0.00 | 0.00 | 78 | 1014.2 |
| 20260507063210 | 16 | 58 | 11.3 | 17.7 | 0.00 | 0.00 | 0.00 | 78 | 1014.2 |
| 20260507062743 | 16 | 76 | 12.9 | 16.1 | 0.00 | 0.00 | 0.00 | 76 | 1014.0 |
| 20260507062332 | 16 | 74 | 12.9 | 16.1 | 0.00 | 0.00 | 0.00 | 76 | 1014.0 |
| 20260507061711 | 16 | 71 | 11.3 | 14.5 | 0.00 | 0.00 | 0.00 | 76 | 1014.0 |
| 20260507061325 | 16 | 91 | 9.7 | 16.1 | 0.00 | 0.00 | 0.00 | 76 | 1013.9 |
| 20260507060730 | 16 | 65 | 9.7 | 16.1 | 0.00 | 0.00 | 0.00 | 76 | 1013.9 |
| 20260507060339 | 16 | 44 | 11.3 | 14.5 | 0.00 | 0.00 | 0.00 | 76 | 1013.8 |
| 20260507055727 | 16 | 77 | 9.7 | 11.3 | 0.00 | 0.00 | 0.00 | 76 | 1013.8 |
| 20260507055220 | 16 | 52 | 8.0 | 11.3 | 0.00 | 0.00 | 0.00 | 77 | 1013.7 |
| 20260507054721 | 16 | 65 | 4.8 | 9.7 | 0.00 | 0.00 | 0.00 | 78 | 1013.7 |
| 20260507054208 | 16 | 56 | 8.0 | 9.7 | 0.00 | 0.00 | 0.00 | 78 | 1013.7 |
| 20260507053715 | 15 | 53 | 6.4 | 8.0 | 0.00 | 0.00 | 0.00 | 79 | 1013.7 |
| 20260507053302 | 15 | 32 | 4.8 | 8.0 | 0.00 | 0.00 | 0.00 | 79 | 1013.7 |
| 20260507052711 | 15 | 51 | 4.8 | 6.4 | 0.00 | 0.00 | 0.00 | 80 | 1013.7 |
| 20260507052306 | 15 | 37 | 4.8 | 8.0 | 0.00 | 0.00 | 0.00 | 80 | 1013.6 |
| 20260507051708 | 15 | 30 | 4.8 | 8.0 | 0.00 | 0.00 | 0.00 | 80 | 1013.5 |
| 20260507051256 | 15 | 30 | 6.4 | 8.0 | 0.00 | 0.00 | 0.00 | 81 | 1013.4 |
| 20260507050709 | 15 | 15 | 6.4 | 8.0 | 0.00 | 0.00 | 0.00 | 81 | 1013.4 |
| 20260507050357 | 15 | 24 | 6.4 | 8.0 | 0.00 | 0.00 | 0.00 | 82 | 1013.3 |
| 20260507045707 | 15 | 359 | 6.4 | 8.0 | 0.00 | 0.00 | 0.00 | 82 | 1013.3 |
| 20260507045244 | 15 | 3 | 4.8 | 8.0 | 0.00 | 0.00 | 0.00 | 83 | 1013.3 |
| 20260507044708 | 15 | 307 | 4.8 | 8.0 | 0.00 | 0.00 | 0.00 | 83 | 1013.4 |
| 20260507044209 | 15 | 344 | 4.8 | 8.0 | 0.00 | 0.00 | 0.00 | 83 | 1013.4 |
| 20260507044122 | 15 | 337 | 3.2 | 6.4 | 0.00 | 0.00 | 0.00 | 83 | 1013.3 |
| 20260507044118 | 15 | 359 | 3.2 | 8.0 | 0.00 | 0.00 | 0.00 | 82 | 1013.4 |
| 20260507044022 | 14 | 326 | 6.4 | 8.0 | 0.00 | 0.00 | 0.00 | 83 | 1013.4 |
| 20260507043537 | 15 | 347 | 6.4 | 6.4 | 0.00 | 0.00 | 0.00 | 83 | 1013.4 |
| 20260507041721 | 15 | 18 | 6.4 | 8.0 | 0.00 | 0.00 | 0.00 | 83 | 1013.3 |
| 20260507041234 | 15 | 34 | 6.4 | 9.7 | 0.00 | 0.00 | 0.00 | 83 | 1013.3 |
| 20260507040709 | 15 | 32 | 6.4 | 9.7 | 0.00 | 0.00 | 0.00 | 83 | 1013.2 |
| 20260507040255 | 15 | 30 | 6.4 | 8.0 | 0.00 | 0.00 | 0.00 | 83 | 1013.3 |
| 20260507035805 | 15 | 27 | 6.4 | 6.4 | 0.00 | 0.00 | 0.00 | 84 | 1013.3 |
| 20260507035211 | 15 | 8 | 4.8 | 8.0 | 0.00 | 0.00 | 0.00 | 84 | 1013.3 |
| 20260507034759 | 15 | 26 | 6.4 | 8.0 | 0.00 | 0.00 | 0.00 | 84 | 1013.3 |
| 20260507034210 | 15 | 25 | 4.8 | 8.0 | 0.00 | 0.00 | 0.00 | 84 | 1013.3 |
| 20260507033759 | 15 | 34 | 4.8 | 8.0 | 0.00 | 0.00 | 0.00 | 84 | 1013.3 |
| 20260507033209 | 15 | 36 | 6.4 | 8.0 | 0.00 | 0.00 | 0.00 | 84 | 1013.3 |
| 20260507032820 | 15 | 32 | 4.8 | 6.4 | 0.00 | 0.00 | 0.00 | 84 | 1013.3 |
| 20260507032208 | 15 | 37 | 4.8 | 6.4 | 0.00 | 0.00 | 0.00 | 84 | 1013.4 |
| 20260507031744 | 15 | 38 | 4.8 | 6.4 | 0.00 | 0.00 | 0.00 | 83 | 1013.4 |
| 20260507031207 | 15 | 35 | 4.8 | 6.4 | 0.00 | 0.00 | 0.00 | 83 | 1013.4 |
| 20260507030724 | 15 | 51 | 6.4 | 8.0 | 0.00 | 0.00 | 0.00 | 81 | 1013.4 |
| 20260507030714 | 15 | 32 | 4.8 | 9.7 | 0.00 | 0.00 | 0.00 | 83 | 1013.4 |
| 20260507030704 | 15 | 46 | 6.4 | 8.0 | 0.00 | 0.00 | 0.00 | 82 | 1013.4 |
| 20260507030612 | 15 | 30 | 6.4 | 9.7 | 0.00 | 0.00 | 0.00 | 82 | 1013.5 |
| 20260507030034 | 15 | 38 | 6.4 | 8.0 | 0.00 | 0.00 | 0.00 | 82 | 1013.5 |
| 20260507024815 | 15 | 46 | 6.4 | 8.0 | 0.00 | 0.00 | 0.00 | 82 | 1013.5 |
| 20260507023717 | 15 | 39 | 4.8 | 9.7 | 0.00 | 0.00 | 0.00 | 81 | 1013.4 |
| 20260507023208 | 15 | 37 | 6.4 | 9.7 | 0.00 | 0.00 | 0.00 | 81 | 1013.4 |
| 20260507023041 | 15 | 48 | 6.4 | 9.7 | 0.00 | 0.00 | 0.00 | 80 | 1013.3 |
| 20260507022755 | 15 | 37 | 6.4 | 9.7 | 0.00 | 0.00 | 0.00 | 80 | 1013.4 |
| 20260507022422 | 15 | 56 | 6.4 | 9.7 | 0.00 | 0.00 | 0.00 | 80 | 1013.4 |
| 20260507021259 | 15 | 38 | 6.4 | 9.7 | 0.00 | 0.00 | 0.00 | 80 | 1013.4 |
| 20260507020708 | 15 | 41 | 6.4 | 8.0 | 0.00 | 0.00 | 0.00 | 80 | 1013.4 |
| 20260507020656 | 15 | 30 | 4.8 | 8.0 | 0.00 | 0.00 | 0.00 | 81 | 1013.6 |
| 20260507020447 | 15 | 28 | 4.8 | 8.0 | 0.00 | 0.00 | 0.00 | 79 | 1013.4 |
| 20260507015907 | 15 | 27 | 4.8 | 8.0 | 0.00 | 0.00 | 0.00 | 80 | 1013.4 |
| 20260507015344 | 15 | 16 | 6.4 | 8.0 | 0.00 | 0.00 | 0.00 | 80 | 1013.4 |
| 20260507014818 | 15 | 28 | 6.4 | 8.0 | 0.00 | 0.00 | 0.00 | 81 | 1013.5 |
| 20260507013709 | 15 | 45 | 4.8 | 8.0 | 0.00 | 0.00 | 0.00 | 81 | 1013.5 |
| 20260507013208 | 15 | 34 | 6.4 | 9.7 | 0.00 | 0.00 | 0.00 | 81 | 1013.5 |
| 20260507012830 | 15 | 44 | 6.4 | 9.7 | 0.00 | 0.00 | 0.00 | 81 | 1013.5 |
| 20260507012237 | 15 | 46 | 4.8 | 11.3 | 0.00 | 0.00 | 0.00 | 81 | 1013.5 |
| 20260507011825 | 15 | 51 | 8.0 | 11.3 | 0.00 | 0.00 | 0.00 | 81 | 1013.5 |
| 20260507011231 | 15 | 50 | 6.4 | 9.7 | 0.00 | 0.00 | 0.00 | 82 | 1013.5 |
| 20260507010746 | 15 | 39 | 6.4 | 9.7 | 0.00 | 0.00 | 0.00 | 82 | 1013.6 |
| 20260507010248 | 15 | 42 | 8.0 | 9.7 | 0.00 | 0.00 | 0.00 | 82 | 1013.6 |
| 20260507005712 | 15 | 46 | 8.0 | 9.7 | 0.00 | 0.00 | 0.00 | 83 | 1013.6 |
| 20260507005223 | 15 | 48 | 6.4 | 9.7 | 0.00 | 0.00 | 0.00 | 83 | 1013.8 |
| 20260507004805 | 15 | 41 | 6.4 | 9.7 | 0.00 | 0.00 | 0.00 | 83 | 1013.8 |
| 20260507004209 | 15 | 50 | 4.8 | 9.7 | 0.00 | 0.00 | 0.00 | 82 | 1013.9 |
| 20260507003759 | 15 | 41 | 6.4 | 11.3 | 0.00 | 0.00 | 0.00 | 82 | 1013.8 |
| 20260507003209 | 15 | 65 | 6.4 | 11.3 | 0.00 | 0.00 | 0.00 | 82 | 1013.9 |
| 20260507002754 | 15 | 56 | 6.4 | 12.9 | 0.00 | 0.00 | 0.00 | 81 | 1013.9 |
| 20260507002208 | 15 | 43 | 9.7 | 12.9 | 0.00 | 0.00 | 0.00 | 81 | 1013.9 |
| 20260507001747 | 15 | 51 | 6.4 | 9.7 | 0.00 | 0.00 | 0.00 | 82 | 1013.8 |
| 20260507001209 | 15 | 56 | 3.2 | 8.0 | 0.00 | 0.00 | 0.00 | 82 | 1013.8 |
| 20260507000850 | 15 | 71 | 6.4 | 9.7 | 0.00 | 0.00 | 0.00 | 83 | 1013.9 |
| 20260507000820 | 15 | 41 | 4.8 | 9.7 | 0.00 | 0.00 | 0.00 | 82 | 1014.0 |
| 20260507000328 | 15 | 40 | 8.0 | 9.7 | 0.00 | 0.00 | 0.00 | 82 | 1014.0 |
| 20260506235327 | 15 | 44 | 4.8 | 8.0 | 0.00 | 0.00 | 0.00 | 83 | 1013.9 |
| 20260506234708 | 15 | 58 | 6.4 | 8.0 | 0.00 | 0.00 | 0.00 | 83 | 1014.0 |
| 20260506234333 | 16 | 47 | 4.8 | 11.3 | 0.00 | 0.00 | 0.00 | 84 | 1014.1 |
| 20260506233722 | 16 | 68 | 6.4 | 12.9 | 0.00 | 0.00 | 0.00 | 84 | 1014.1 |
| 20260506233240 | 16 | 84 | 9.7 | 12.9 | 0.00 | 0.00 | 0.00 | 84 | 1013.9 |
| 20260506232716 | 16 | 58 | 9.7 | 14.5 | 0.00 | 0.00 | 0.00 | 84 | 1013.9 |
| 20260506232208 | 16 | 61 | 9.7 | 17.7 | 0.00 | 0.00 | 0.00 | 85 | 1013.9 |
| 20260506231710 | 16 | 67 | 11.3 | 17.7 | 0.00 | 0.00 | 0.00 | 85 | 1013.9 |
| 20260506231302 | 16 | 56 | 12.9 | 17.7 | 0.00 | 0.00 | 0.00 | 85 | 1013.9 |
| 20260506230706 | 16 | 51 | 12.9 | 20.9 | 0.00 | 0.00 | 0.00 | 84 | 1014.0 |
| 20260506230320 | 16 | 71 | 14.5 | 20.9 | 0.00 | 0.00 | 0.00 | 84 | 1014.0 |
| 20260506225708 | 16 | 68 | 16.1 | 20.9 | 0.00 | 0.00 | 0.00 | 83 | 1013.9 |
| 20260506225328 | 16 | 63 | 14.5 | 19.3 | 0.00 | 0.00 | 0.00 | 84 | 1013.9 |
| 20260506224711 | 16 | 75 | 14.5 | 19.3 | 0.00 | 0.00 | 0.00 | 84 | 1013.8 |
| 20260506224254 | 16 | 69 | 11.3 | 24.1 | 0.00 | 0.00 | 0.00 | 85 | 1013.8 |
| 20260506223707 | 17 | 77 | 14.5 | 24.1 | 0.00 | 0.00 | 0.00 | 83 | 1013.9 |
| 20260506223250 | 17 | 102 | 6.4 | 11.3 | 0.00 | 0.00 | 0.00 | 84 | 1013.8 |
| 20260506223110 | 17 | 160 | 3.2 | 6.4 | 0.00 | 0.00 | 0.00 | 84 | 1013.9 |
| 20260506222746 | 17 | 103 | 6.4 | 9.7 | 0.00 | 0.00 | 0.00 | 84 | 1013.8 |
| 20260506221838 | 17 | 122 | 3.2 | 8.0 | 0.00 | 0.00 | 0.00 | 83 | 1013.9 |
| 20260506221301 | 17 | 205 | 3.2 | 6.4 | 0.00 | 0.00 | 0.00 | 84 | 1013.9 |
| 20260506221250 | 17 | 156 | 3.2 | 8.0 | 0.00 | 0.00 | 0.00 | 83 | 1013.9 |
| 20260506221031 | 17 | 151 | 3.2 | 8.0 | 0.00 | 0.00 | 0.00 | 84 | 1013.9 |
| 20260506215831 | 17 | 145 | 1.6 | 8.0 | 0.00 | 0.00 | 0.00 | 83 | 1013.8 |
| 20260506215814 | 17 | 192 | 1.6 | 6.4 | 0.00 | 0.00 | 0.00 | 84 | 1013.9 |
| 20260506214706 | 17 | 88 | 3.2 | 12.9 | 0.00 | 0.00 | 0.00 | 83 | 1013.7 |
| 20260506214653 | 17 | 252 | 4.8 | 12.9 | 0.00 | 0.00 | 0.00 | 82 | 1013.8 |
| 20260506213758 | 17 | 180 | 3.2 | 9.7 | 0.00 | 0.00 | 0.00 | 80 | 1013.8 |
| 20260506213500 | 17 | 220 | 3.2 | 8.0 | 0.00 | 0.00 | 0.00 | 80 | 1013.8 |
| 20260506212755 | 17 | 233 | 4.8 | 16.1 | 0.00 | 0.00 | 0.00 | 79 | 1013.7 |
| 20260506212310 | 16 | 146 | 3.2 | 11.3 | 0.00 | 0.00 | 0.00 | 82 | 1013.8 |
| 20260506212307 | 16 | 59 | 6.4 | 8.0 | 0.00 | 0.00 | 0.00 | 78 | 1013.9 |
| 20260506212246 | 17 | 27 | 4.8 | 16.1 | 0.00 | 0.00 | 0.00 | 83 | 1013.9 |
| 20260506210744 | 16 | 336 | 1.6 | 8.0 | 0.00 | 0.00 | 0.00 | 77 | 1013.8 |
| 20260506210207 | 16 | 299 | 3.2 | 8.0 | 0.00 | 0.00 | 0.00 | 77 | 1013.7 |
| 20260506205757 | 16 | 306 | 3.2 | 4.8 | 0.00 | 0.00 | 0.00 | 78 | 1013.6 |
| 20260506205741 | 16 | 339 | 3.2 | 6.4 | 0.00 | 0.00 | 0.00 | 77 | 1013.6 |
| 20260506205248 | 16 | 326 | 3.2 | 6.4 | 0.00 | 0.00 | 0.00 | 78 | 1013.6 |
| 20260506204326 | 16 | 48 | 0.0 | 3.2 | 0.00 | 0.00 | 0.00 | 77 | 1013.6 |
| 20260506203707 | 16 | 340 | 0.0 | 4.8 | 0.00 | 0.00 | 0.00 | 77 | 1013.5 |